Погода в Банилове-Подгорном

Украина / Черновицкая область     48°05′38″N   25°29′34″E
темп.,
°C
ветер,
м/с
пор.,
м/с
влажн.,
%
обл.,
%
осадки,
мм/ч
давл.,
гПа
погр.,
м
20 сентября, пн
пн2000:00+6св129890 0.0 1013182
03:00+6ссз119790 0.0 1014165
06:00+6сз119695 0.0 101479
09:00+7с019395 0.0 1014263
12:00+7ссв2292100 0.1 1015451
15:00+6ссз3491100 0.1 1016539
18:00+6ссз3687100 0.0 1017700
21:00+5ссз3791100 0.1 1019769
21 сентября, вт
вт2100:00+4ссз3792100 0.0 1020667
03:00+3ссз369198 0.1 1021548
06:00+3сз378967 0.0 1021507
09:00+5сз5116775 0.0 10221169
12:00+8сз595261 0.0 10221444
15:00+12ссз694011 0.0 10201810
18:00+9ссз59595 0.0 10211116
21:00+4зсз368384 0.0 1024271
22 сентября, ср
ср2200:00+6зсз3107482 0.0 10241076
03:00+6сз4971100 0.0 10231285
06:00+6сз2866100 0.0 1022759
09:00+7сз2661100 0.0 10211029
12:00+9ссз3655100 0.0 10191505
15:00+8ссз4473100 0.7 1019937
18:00+5ссз3796100 1.0 1020831
21:00+4зсз2694100 3.2 1020567
23 сентября, чт
чт2300:00+3зсз2393100 0.1 102071
03:00+4з2897100 0.4 1019701
06:00+4з2796100 0.2 1019453
09:00+4з2698100 0.4 1019520
12:00+5з259089 0.3 1019507
15:00+9зсз356697 0.4 10171189
18:00+10з3559100 0.1 1016694
21:00+6зюз2377100 0.1 101663
24 сентября, пт
пт2400:00+6юз3476100 0.0 1016101
03:00+9зюз61562100 0.0 1012649
06:00+10зюз91862100 0.0 1010864
09:00+11зюз91961100 0.1 10081021
12:00+14з91855100 0.0 10081060
15:00+13з81659100 0.0 1009922
18:00+13зюз81663100 0.0 1010991
21:00+14з61366100 0.0 10111011